Simultaneous Nadir Overpasses (SNOs) Predictions

Prediction of SNOs between NOAA-19 and NPP Satellite Orbit:

Table of predicted SNOs for the next 14.0 days since TLE Epoch: 11/11/2016
Index Date (NOAA-19) Time (NOAA-19) Lat,Lon (NOAA-19) SZA (NOAA-19 ) Date (NPP) Time (NPP) Lat,Lon (NPP) SZA (NPP ) Distance(km) Time Diff (sec)
1 11/15/2016 03:13:12 -80.95,-100.10 77.65 11/15/2016 03:14:25 -80.94,-100.18 77.68 1.69 73
2 11/15/2016 04:04:18 80.94, 66.99 102.38 11/15/2016 04:05:10 80.94, 67.07 102.34 1.39 52
3 11/15/2016 04:55:14 -80.95,-125.66 77.63 11/15/2016 04:55:55 -80.94,-125.59 77.66 1.21 41
4 11/15/2016 05:46:19 80.95, 41.80 102.36 11/15/2016 05:46:40 80.94, 41.66 102.37 2.60 21
5 11/15/2016 06:37:15 -80.95,-150.84 77.64 11/15/2016 06:37:25 -80.94,-151.00 77.63 2.93 10
6 11/15/2016</
